map of TGI home
Great Circle Mapper logo
TGI - Airport
Location
City:  Tingo Maria, Perú
ICAO / IATA:SPGM / TGI

Details
Type:Airport (Aerodrome, Airfield)
Latitude:9°17'21"S (-9.289166)
Longitude:76°00'18"W (-76.004999)
Elevation:2010 ft (613 m)
Runways:1
Longest:6890 × 98 ft (2100 × 30 m)

Time
Time Zone:UTC-5
Local Time:

Weather
METAR:SPGM 312100Z /////KT 9999 SCT040 OVC110 23/20 Q1012 RMK TMX./// PP000
TAF:SPGM 311630Z 3118/0118 VRB03KT 9999 SCT040 BKN130 TX33/3119Z TN22/0111Z
TEMPO 3118/3120 8000 RA BKN020 OVC080

Related Locations
Nearby:
Farthest:PQC: 12369 mi / 19906 km
Phú Quóc [Intl], VN

Find:

   beyond  
but within

Other Information
Maps:
NOTAMs:
Links:
Sources:

  
flag of Perú   

Sectional Chart

Flight Planning
at skyvector.com

Satellite Image

Google Maps Satellite View

 

Copyright © 2004-2014 Karl L. Swartz. All rights reserved.
The Great Circle Mapper name and logo are trademarks of the Great Circle Mapper.
All other trademarks mentioned herein belong to their respective owners.
Please see credits for attibutions and further copyright information.

  Follow gcmap on Facebook Follow gcmap on Twitter

hCard Microformat

Geo Microformat